Terug naar catalogus

COSMOS 1324

ActiefNavigatieLEO
NORAD 12979·PAYLOAD·🇷🇺 Russia

Gelanceerd Nov 28, 1981 vanaf Plesetsk Cosmodrome

Loading…

Volgende Passages (komende 24 uur)

TLE

VersSource: Space-Track

Epoch: Sep 14, 2026, 08:20 UTC

1 12979U 81116E   26257.34763759 -.00000023  00000-0 -69625-4 0  9990
2 12979  73.9789 239.2143 0086713  74.1112  88.2464 12.29741115 10891

Volg COSMOS 1324 in realtime met AllMySat

Download on the App Store